Northeast Iowa Regional Airport Charles City US
ICAO: KCCY
IATA: CCY
Category: Medium
Scheduled Services: No

Elevation: 1125 ft
TransAlt. 18000 ft.

Airport Communications:
WATERLOO APP/DEP:118.9
AWOS 3:125.525
FORT DODGE RDO:122.4
CTAF/UNICOM:122.8

KCCY Zoom In..

If you have problems with the map follow the link
https://www.worldairports.se/pages/airport.php?
ICAO=KCCY

Runways:

(A) RW 04 length 2536 ft width 160 ft
LOC 108.30 / hdg 42

(B) RW 12 length 4000 ft width 75 ft
LOC 108.30 / hdg 122

(C) RW 18 length 1780 ft width 170 ft
LOC 108.30 / hdg 177

(D) RW 22 length 2536 ft width 160 ft
LOC 108.30 / hdg 222

(E) RW 30 length 4000 ft width 75 ft
LOC 108.30 / hdg 302

(F) RW 36 length 1780 ft width 170 ft
LOC 108.30 / hdg 357

Location; KCCY
Day. 17 / Time. 02.15 Zulu
* Altimeter: 30.10
* Temperature: -02° c. -28.4°f.
* Wind from: 000° Speed 00 kn.
Dewpoint: -03° c.
Visibility: 2 m.
Clouds: Scattered 2100 ft.
Clouds: Broken 2700 ft.
Clouds: Broken 4000 ft.
Conditions: Light Snow.

KCCY 170215Z AUTO 00000KT 2 1/2SM -SN SCT021 BKN027 BKN040 M02/M03 A3010 RMK AO2


Wind - Calm.

 
 
jpsmedia.com for Web Design worldairports.se 2018   terms of use